Year,Month,Day,Hour,Minute,Value (Times are PST for temperature in C)
2015,05,30,00,00,14.40
2015,05,30,00,01,14.30
2015,05,30,00,02,14.30
2015,05,30,00,03,14.30
2015,05,30,00,04,14.30
2015,05,30,00,05,14.30
2015,05,30,00,06,14.30
2015,05,30,00,07,14.30
2015,05,30,00,08,14.20
2015,05,30,00,09,14.20
2015,05,30,00,10,14.20
2015,05,30,00,11,14.20
2015,05,30,00,12,14.10
2015,05,30,00,13,14.10
2015,05,30,00,14,14.10
2015,05,30,00,15,14.10
2015,05,30,00,16,14.10
2015,05,30,00,17,14.10
2015,05,30,00,18,14.10
2015,05,30,00,19,14.10
2015,05,30,00,20,14.00
2015,05,30,00,21,14.00
2015,05,30,00,22,13.90
2015,05,30,00,23,13.90
2015,05,30,00,24,13.90
2015,05,30,00,25,13.80
2015,05,30,00,26,13.80
2015,05,30,00,27,13.80
2015,05,30,00,28,13.70
2015,05,30,00,29,13.70
2015,05,30,00,30,13.70
2015,05,30,00,31,13.60
2015,05,30,00,32,13.60
2015,05,30,00,33,13.50
2015,05,30,00,34,13.50
2015,05,30,00,35,13.40
2015,05,30,00,36,13.40
2015,05,30,00,37,13.40
2015,05,30,00,38,13.40
2015,05,30,00,39,13.40
2015,05,30,00,40,13.30
2015,05,30,00,41,13.30
2015,05,30,00,42,13.30
2015,05,30,00,43,13.30
2015,05,30,00,44,13.30
2015,05,30,00,45,13.30
2015,05,30,00,46,13.30
2015,05,30,00,47,13.30
2015,05,30,00,48,13.30
2015,05,30,00,49,13.30
2015,05,30,00,50,13.30
2015,05,30,00,51,13.30
2015,05,30,00,52,13.30
2015,05,30,00,53,13.30
2015,05,30,00,54,13.30
2015,05,30,00,55,13.30
2015,05,30,00,56,13.30
2015,05,30,00,57,13.30
2015,05,30,00,58,13.30
2015,05,30,00,59,13.30
2015,05,30,01,00,13.30
2015,05,30,01,01,13.20
2015,05,30,01,02,13.20
2015,05,30,01,03,13.20
2015,05,30,01,04,13.20
2015,05,30,01,05,13.20
2015,05,30,01,06,13.10
2015,05,30,01,07,13.10
2015,05,30,01,08,13.10
2015,05,30,01,09,13.10
2015,05,30,01,10,13.10
2015,05,30,01,11,13.00
2015,05,30,01,12,13.00
2015,05,30,01,13,13.00
2015,05,30,01,14,12.90
2015,05,30,01,15,12.90
2015,05,30,01,16,12.90
2015,05,30,01,17,12.90
2015,05,30,01,18,12.80
2015,05,30,01,19,12.80
2015,05,30,01,20,12.80
2015,05,30,01,21,12.80
2015,05,30,01,22,12.70
2015,05,30,01,23,12.70
2015,05,30,01,24,12.70
2015,05,30,01,25,12.70
2015,05,30,01,26,12.60
2015,05,30,01,27,12.60
2015,05,30,01,28,12.60
2015,05,30,01,29,12.60
2015,05,30,01,30,12.50
2015,05,30,01,31,12.50
2015,05,30,01,32,12.50
2015,05,30,01,33,12.40
2015,05,30,01,34,12.40
2015,05,30,01,35,12.40
2015,05,30,01,36,12.40
2015,05,30,01,37,12.40
2015,05,30,01,38,12.40
2015,05,30,01,39,12.30
2015,05,30,01,40,12.30
2015,05,30,01,41,12.30
2015,05,30,01,42,12.30
2015,05,30,01,43,12.30
2015,05,30,01,44,12.20
2015,05,30,01,45,12.20
2015,05,30,01,46,12.20
2015,05,30,01,47,12.10
2015,05,30,01,48,12.10
2015,05,30,01,49,12.10
2015,05,30,01,50,12.10
2015,05,30,01,51,12.00
2015,05,30,01,52,12.00
2015,05,30,01,53,12.00
2015,05,30,01,54,11.90
2015,05,30,01,55,11.90
2015,05,30,01,56,11.90
2015,05,30,01,57,11.80
2015,05,30,01,58,11.80
2015,05,30,01,59,11.80
2015,05,30,02,00,11.70
2015,05,30,02,01,11.60
2015,05,30,02,02,11.60
2015,05,30,02,03,11.50
2015,05,30,02,04,11.50
2015,05,30,02,05,11.40
2015,05,30,02,06,11.40
2015,05,30,02,07,11.40
2015,05,30,02,08,11.40
2015,05,30,02,09,11.40
2015,05,30,02,10,11.40
2015,05,30,02,11,11.30
2015,05,30,02,12,11.30
2015,05,30,02,13,11.20
2015,05,30,02,14,11.10
2015,05,30,02,15,11.10
2015,05,30,02,16,11.00
2015,05,30,02,17,11.00
2015,05,30,02,18,10.90
2015,05,30,02,19,10.90
2015,05,30,02,20,10.90
2015,05,30,02,21,10.80
2015,05,30,02,22,10.80
2015,05,30,02,23,10.80
2015,05,30,02,24,10.70
2015,05,30,02,25,10.70
2015,05,30,02,26,10.70
2015,05,30,02,27,10.70
2015,05,30,02,28,10.70
2015,05,30,02,29,10.70
2015,05,30,02,30,10.70
2015,05,30,02,31,10.70
2015,05,30,02,32,10.60
2015,05,30,02,33,10.60
2015,05,30,02,34,10.60
2015,05,30,02,35,10.60
2015,05,30,02,36,10.60
2015,05,30,02,37,10.60
2015,05,30,02,38,10.60
2015,05,30,02,39,10.60
2015,05,30,02,40,10.60
2015,05,30,02,41,10.60
2015,05,30,02,42,10.60
2015,05,30,02,43,10.60
2015,05,30,02,44,10.60
2015,05,30,02,45,10.50
2015,05,30,02,46,10.50
2015,05,30,02,47,10.50
2015,05,30,02,48,10.50
2015,05,30,02,49,10.40
2015,05,30,02,50,10.40
2015,05,30,02,51,10.40
2015,05,30,02,52,10.40
2015,05,30,02,53,10.40
2015,05,30,02,54,10.40
2015,05,30,02,55,10.30
2015,05,30,02,56,10.30
2015,05,30,02,57,10.30
2015,05,30,02,58,10.30
2015,05,30,02,59,10.30
2015,05,30,03,00,10.20
2015,05,30,03,01,10.20
2015,05,30,03,02,10.20
2015,05,30,03,03,10.20
2015,05,30,03,04,10.10
2015,05,30,03,05,10.10
2015,05,30,03,06,10.10
2015,05,30,03,07,10.10
2015,05,30,03,08,10.00
2015,05,30,03,09,10.00
2015,05,30,03,10,10.00
2015,05,30,03,11,10.00
2015,05,30,03,12,9.90
2015,05,30,03,13,9.90
2015,05,30,03,14,9.90
2015,05,30,03,15,9.90
2015,05,30,03,16,9.90
2015,05,30,03,17,9.90
2015,05,30,03,18,9.90
2015,05,30,03,19,9.90
2015,05,30,03,20,9.90
2015,05,30,03,21,9.90
2015,05,30,03,22,9.90
2015,05,30,03,23,9.90
2015,05,30,03,24,9.80
2015,05,30,03,25,9.80
2015,05,30,03,26,9.80
2015,05,30,03,27,9.80
2015,05,30,03,28,9.70
2015,05,30,03,29,9.70
2015,05,30,03,30,9.70
2015,05,30,03,31,9.70
2015,05,30,03,32,9.70
2015,05,30,03,33,9.70
2015,05,30,03,34,9.70
2015,05,30,03,35,9.70
2015,05,30,03,36,9.60
2015,05,30,03,37,9.60
2015,05,30,03,38,9.60
2015,05,30,03,39,9.60
2015,05,30,03,40,9.60
2015,05,30,03,41,9.60
2015,05,30,03,42,9.60
2015,05,30,03,43,9.60
2015,05,30,03,44,9.60
2015,05,30,03,45,9.50
2015,05,30,03,46,9.50
2015,05,30,03,47,9.50
2015,05,30,03,48,9.50
2015,05,30,03,49,9.50
2015,05,30,03,50,9.50
2015,05,30,03,51,9.40
2015,05,30,03,52,9.40
2015,05,30,03,53,9.40
2015,05,30,03,54,9.40
2015,05,30,03,55,9.30
2015,05,30,03,56,9.30
2015,05,30,03,57,9.20
2015,05,30,03,58,9.20
2015,05,30,03,59,9.20
2015,05,30,04,00,9.10
2015,05,30,04,01,9.10
2015,05,30,04,02,9.10
2015,05,30,04,03,9.10
2015,05,30,04,04,9.10
2015,05,30,04,05,9.10
2015,05,30,04,06,9.10
2015,05,30,04,07,9.10
2015,05,30,04,08,9.10
2015,05,30,04,09,9.10
2015,05,30,04,10,9.00
2015,05,30,04,11,9.00
2015,05,30,04,12,9.00
2015,05,30,04,13,8.90
2015,05,30,04,14,8.90
2015,05,30,04,15,8.90
2015,05,30,04,16,8.90
2015,05,30,04,17,8.80
2015,05,30,04,18,8.80
2015,05,30,04,19,8.80
2015,05,30,04,20,8.80
2015,05,30,04,21,8.80
2015,05,30,04,22,8.80
2015,05,30,04,23,8.80
2015,05,30,04,24,8.80
2015,05,30,04,25,8.80
2015,05,30,04,26,8.80
2015,05,30,04,27,8.70
2015,05,30,04,28,8.70
2015,05,30,04,29,8.70
2015,05,30,04,30,8.70
2015,05,30,04,31,8.70
2015,05,30,04,32,8.70
2015,05,30,04,33,8.60
2015,05,30,04,34,8.60
2015,05,30,04,35,8.60
2015,05,30,04,36,8.60
2015,05,30,04,37,8.60
2015,05,30,04,38,8.60
2015,05,30,04,39,8.50
2015,05,30,04,40,8.50
2015,05,30,04,41,8.50
2015,05,30,04,42,8.50
2015,05,30,04,43,8.50
2015,05,30,04,44,8.50
2015,05,30,04,45,8.50
2015,05,30,04,46,8.50
2015,05,30,04,47,8.50
2015,05,30,04,48,8.50
2015,05,30,04,49,8.50
2015,05,30,04,50,8.50
2015,05,30,04,51,8.50
2015,05,30,04,52,8.40
2015,05,30,04,53,8.40
2015,05,30,04,54,8.40
2015,05,30,04,55,8.40
2015,05,30,04,56,8.40
2015,05,30,04,57,8.40
2015,05,30,04,58,8.40
2015,05,30,04,59,8.30
2015,05,30,05,00,8.30
2015,05,30,05,01,8.30
2015,05,30,05,02,8.30
2015,05,30,05,03,8.30
2015,05,30,05,04,8.20
2015,05,30,05,05,8.20
2015,05,30,05,06,8.20
2015,05,30,05,07,8.10
2015,05,30,05,08,8.10
2015,05,30,05,09,8.10
2015,05,30,05,10,8.10
2015,05,30,05,11,8.10
2015,05,30,05,12,8.10
2015,05,30,05,13,8.10
2015,05,30,05,14,8.00
2015,05,30,05,15,8.00
2015,05,30,05,16,8.00
2015,05,30,05,17,8.00
2015,05,30,05,18,8.00
2015,05,30,05,19,8.00
2015,05,30,05,20,8.00
2015,05,30,05,21,7.90
2015,05,30,05,22,7.90
2015,05,30,05,23,7.90
2015,05,30,05,24,7.90
2015,05,30,05,25,7.90
2015,05,30,05,26,7.90
2015,05,30,05,27,7.90
2015,05,30,05,28,7.90
2015,05,30,05,29,7.90
2015,05,30,05,30,7.90
2015,05,30,05,31,7.90
2015,05,30,05,32,7.80
2015,05,30,05,33,7.80
2015,05,30,05,34,7.80
2015,05,30,05,35,7.80
2015,05,30,05,36,7.80
2015,05,30,05,37,7.70
2015,05,30,05,38,7.70
2015,05,30,05,39,7.70
2015,05,30,05,40,7.70
2015,05,30,05,41,7.70
2015,05,30,05,42,7.70
2015,05,30,05,43,7.70
2015,05,30,05,44,7.70
2015,05,30,05,45,7.70
2015,05,30,05,46,7.70
2015,05,30,05,47,7.70
2015,05,30,05,48,7.70
2015,05,30,05,49,7.70
2015,05,30,05,50,7.70
2015,05,30,05,51,7.80
2015,05,30,05,52,7.80
2015,05,30,05,53,7.80
2015,05,30,05,54,7.80
2015,05,30,05,55,7.80
2015,05,30,05,56,7.80
2015,05,30,05,57,7.80
2015,05,30,05,58,7.80
2015,05,30,05,59,7.80
2015,05,30,06,00,7.80
2015,05,30,06,01,7.80
2015,05,30,06,02,7.80
2015,05,30,06,03,7.80
2015,05,30,06,04,7.80
2015,05,30,06,05,7.80
2015,05,30,06,06,7.80
2015,05,30,06,07,7.80
2015,05,30,06,08,7.90
2015,05,30,06,09,7.90
2015,05,30,06,10,7.90
2015,05,30,06,11,8.00
2015,05,30,06,12,8.10
2015,05,30,06,13,8.10
2015,05,30,06,14,8.20
2015,05,30,06,15,8.30
2015,05,30,06,16,8.30
2015,05,30,06,17,8.40
2015,05,30,06,18,8.50
2015,05,30,06,19,8.60
2015,05,30,06,20,8.70
2015,05,30,06,21,8.70
2015,05,30,06,22,8.80
2015,05,30,06,23,8.90
2015,05,30,06,24,8.90
2015,05,30,06,25,8.90
2015,05,30,06,26,9.00
2015,05,30,06,27,9.10
2015,05,30,06,28,9.20
2015,05,30,06,29,9.30
2015,05,30,06,30,9.30
2015,05,30,06,31,9.40
2015,05,30,06,32,9.50
2015,05,30,06,33,9.60
2015,05,30,06,34,9.70
2015,05,30,06,35,9.80
2015,05,30,06,36,9.80
2015,05,30,06,37,9.80
2015,05,30,06,38,9.80
2015,05,30,06,39,9.80
2015,05,30,06,40,9.80
2015,05,30,06,41,9.80
2015,05,30,06,42,9.80
2015,05,30,06,43,9.80
2015,05,30,06,44,9.80
2015,05,30,06,45,9.90
2015,05,30,06,46,9.90
2015,05,30,06,47,9.90
2015,05,30,06,48,9.90
2015,05,30,06,49,9.90
2015,05,30,06,50,10.00
2015,05,30,06,51,10.00
2015,05,30,06,52,10.00
2015,05,30,06,53,10.10
2015,05,30,06,54,10.10
2015,05,30,06,55,10.20
2015,05,30,06,56,10.20
2015,05,30,06,57,10.30
2015,05,30,06,58,10.40
2015,05,30,06,59,10.50
2015,05,30,07,00,10.60
2015,05,30,07,01,10.60
2015,05,30,07,02,10.70
2015,05,30,07,03,10.70
2015,05,30,07,04,10.80
2015,05,30,07,05,10.80
2015,05,30,07,06,10.80
2015,05,30,07,07,10.90
2015,05,30,07,08,10.90
2015,05,30,07,09,11.00
2015,05,30,07,10,11.00
2015,05,30,07,11,11.10
2015,05,30,07,12,11.10
2015,05,30,07,13,11.20
2015,05,30,07,14,11.20
2015,05,30,07,15,11.30
2015,05,30,07,16,11.40
2015,05,30,07,17,11.40
2015,05,30,07,18,11.60
2015,05,30,07,19,11.70
2015,05,30,07,20,11.80
2015,05,30,07,21,12.00
2015,05,30,07,22,12.10
2015,05,30,07,23,12.20
2015,05,30,07,24,12.30
2015,05,30,07,25,12.40
2015,05,30,07,26,12.50
2015,05,30,07,27,12.50
2015,05,30,07,28,12.60
2015,05,30,07,29,12.60
2015,05,30,07,30,12.60
2015,05,30,07,31,12.60
2015,05,30,07,32,12.60
2015,05,30,07,33,12.70
2015,05,30,07,34,12.70
2015,05,30,07,35,12.70
2015,05,30,07,36,12.70
2015,05,30,07,37,12.80
2015,05,30,07,38,12.80
2015,05,30,07,39,12.80
2015,05,30,07,40,12.80
2015,05,30,07,41,12.90
2015,05,30,07,42,12.90
2015,05,30,07,43,12.90
2015,05,30,07,44,12.90
2015,05,30,07,45,12.90
2015,05,30,07,46,12.90
2015,05,30,07,47,13.00
2015,05,30,07,48,12.90
2015,05,30,07,49,12.90
2015,05,30,07,50,13.00
2015,05,30,07,51,13.00
2015,05,30,07,52,13.10
2015,05,30,07,53,13.10
2015,05,30,07,54,13.20
2015,05,30,07,55,13.20
2015,05,30,07,56,13.30
2015,05,30,07,57,13.30
2015,05,30,07,58,13.30
2015,05,30,07,59,13.30
2015,05,30,08,00,13.30
2015,05,30,08,01,13.40
2015,05,30,08,02,13.40
2015,05,30,08,03,13.50
2015,05,30,08,04,13.60
2015,05,30,08,05,13.70
2015,05,30,08,06,13.70
2015,05,30,08,07,13.70
2015,05,30,08,08,13.70
2015,05,30,08,09,13.60
2015,05,30,08,10,13.60
2015,05,30,08,11,13.70
2015,05,30,08,12,13.70
2015,05,30,08,13,13.80
2015,05,30,08,14,13.80
2015,05,30,08,15,14.00
2015,05,30,08,16,14.00
2015,05,30,08,17,14.10
2015,05,30,08,18,14.20
2015,05,30,08,19,14.30
2015,05,30,08,20,14.30
2015,05,30,08,21,14.40
2015,05,30,08,22,14.40
2015,05,30,08,23,14.50
2015,05,30,08,24,14.60
2015,05,30,08,25,14.60
2015,05,30,08,26,14.60
2015,05,30,08,27,14.70
2015,05,30,08,28,14.70
2015,05,30,08,29,14.70
2015,05,30,08,30,14.70
2015,05,30,08,31,14.70
2015,05,30,08,32,14.70
2015,05,30,08,33,14.70
2015,05,30,08,34,14.80
2015,05,30,08,35,14.80
2015,05,30,08,36,14.80
2015,05,30,08,37,14.90
2015,05,30,08,38,14.90
2015,05,30,08,39,14.80
2015,05,30,08,40,14.80
2015,05,30,08,41,14.80
2015,05,30,08,42,14.70
2015,05,30,08,43,14.70
2015,05,30,08,44,14.70
2015,05,30,08,45,14.70
2015,05,30,08,46,14.70
2015,05,30,08,47,14.80
2015,05,30,08,48,14.80
2015,05,30,08,49,14.80
2015,05,30,08,50,14.80
2015,05,30,08,51,14.80
2015,05,30,08,52,14.80
2015,05,30,08,53,14.80
2015,05,30,08,54,14.80
2015,05,30,08,55,14.80
2015,05,30,08,56,14.80
2015,05,30,08,57,14.90
2015,05,30,08,58,15.00
2015,05,30,08,59,15.10
2015,05,30,09,00,15.20
2015,05,30,09,01,15.30
2015,05,30,09,02,15.40
2015,05,30,09,03,15.50
2015,05,30,09,04,15.60
2015,05,30,09,05,15.60
2015,05,30,09,06,15.60
2015,05,30,09,07,15.60
2015,05,30,09,08,15.60
2015,05,30,09,09,15.60
2015,05,30,09,10,15.60
2015,05,30,09,11,15.70
2015,05,30,09,12,15.80
2015,05,30,09,13,15.90
2015,05,30,09,14,15.90
2015,05,30,09,15,16.00
2015,05,30,09,16,16.00
2015,05,30,09,17,15.90
2015,05,30,09,18,15.90
2015,05,30,09,19,15.90
2015,05,30,09,20,15.90
2015,05,30,09,21,15.80
2015,05,30,09,22,15.80
2015,05,30,09,23,15.80
2015,05,30,09,24,15.80
2015,05,30,09,25,15.80
2015,05,30,09,26,15.80
2015,05,30,09,27,15.80
2015,05,30,09,28,15.80
2015,05,30,09,29,15.80
2015,05,30,09,30,15.90
2015,05,30,09,31,16.00
2015,05,30,09,32,16.00
2015,05,30,09,33,16.10
2015,05,30,09,34,16.10
2015,05,30,09,35,16.20
2015,05,30,09,36,16.20
2015,05,30,09,37,16.30
2015,05,30,09,38,16.50
2015,05,30,09,39,16.60
2015,05,30,09,40,16.70
2015,05,30,09,41,16.80
2015,05,30,09,42,16.80
2015,05,30,09,43,16.80
2015,05,30,09,44,16.90
2015,05,30,09,45,17.00
2015,05,30,09,46,17.00
2015,05,30,09,47,17.20
2015,05,30,09,48,17.30
2015,05,30,09,49,17.40
2015,05,30,09,50,17.50
2015,05,30,09,51,17.50
2015,05,30,09,52,17.60
2015,05,30,09,53,17.60
2015,05,30,09,54,17.50
2015,05,30,09,55,17.50
2015,05,30,09,56,17.50
2015,05,30,09,57,17.50
2015,05,30,09,58,17.50
2015,05,30,09,59,17.50
2015,05,30,10,00,17.40
2015,05,30,10,01,17.30
2015,05,30,10,02,17.20
2015,05,30,10,03,17.10
2015,05,30,10,04,17.10
2015,05,30,10,05,17.00
2015,05,30,10,06,16.90
2015,05,30,10,07,16.90
2015,05,30,10,08,16.90
2015,05,30,10,09,16.90
2015,05,30,10,10,16.90
2015,05,30,10,11,16.90
2015,05,30,10,12,16.90
2015,05,30,10,13,16.90
2015,05,30,10,14,16.90
2015,05,30,10,15,16.90
2015,05,30,10,16,16.90
2015,05,30,10,17,16.80
2015,05,30,10,18,16.90
2015,05,30,10,19,16.90
2015,05,30,10,20,17.00
2015,05,30,10,21,17.00
2015,05,30,10,22,17.00
2015,05,30,10,23,17.00
2015,05,30,10,24,16.90
2015,05,30,10,25,16.90
2015,05,30,10,26,17.00
2015,05,30,10,27,17.10
2015,05,30,10,28,17.10
2015,05,30,10,29,17.20
2015,05,30,10,30,17.20
2015,05,30,10,31,17.20
2015,05,30,10,32,17.30
2015,05,30,10,33,17.20
2015,05,30,10,34,17.20
2015,05,30,10,35,17.30
2015,05,30,10,36,17.30
2015,05,30,10,37,17.30
2015,05,30,10,38,17.30
2015,05,30,10,39,17.40
2015,05,30,10,40,17.40
2015,05,30,10,41,17.50
2015,05,30,10,42,17.50
2015,05,30,10,43,17.50
2015,05,30,10,44,17.50
2015,05,30,10,45,17.60
2015,05,30,10,46,17.60
2015,05,30,10,47,17.60
2015,05,30,10,48,17.70
2015,05,30,10,49,17.70
2015,05,30,10,50,17.70
2015,05,30,10,51,17.80
2015,05,30,10,52,17.80
2015,05,30,10,53,17.80
2015,05,30,10,54,17.70
2015,05,30,10,55,17.70
2015,05,30,10,56,17.60
2015,05,30,10,57,17.60
2015,05,30,10,58,17.60
2015,05,30,10,59,17.50
2015,05,30,11,00,17.40
2015,05,30,11,01,17.40
2015,05,30,11,02,17.40
2015,05,30,11,03,17.40
2015,05,30,11,04,17.50
2015,05,30,11,05,17.50
2015,05,30,11,06,17.60
2015,05,30,11,07,17.70
2015,05,30,11,08,17.70
2015,05,30,11,09,17.70
2015,05,30,11,10,17.80
2015,05,30,11,11,17.90
2015,05,30,11,12,18.00
2015,05,30,11,13,18.00
2015,05,30,11,14,18.00
2015,05,30,11,15,18.00
2015,05,30,11,16,18.10
2015,05,30,11,17,18.10
2015,05,30,11,18,18.20
2015,05,30,11,19,18.10
2015,05,30,11,20,18.00
2015,05,30,11,21,18.00
2015,05,30,11,22,17.80
2015,05,30,11,23,17.80
2015,05,30,11,24,17.70
2015,05,30,11,25,17.80
2015,05,30,11,26,17.80
2015,05,30,11,27,17.80
2015,05,30,11,28,17.80
2015,05,30,11,29,17.80
2015,05,30,11,30,17.90
2015,05,30,11,31,18.00
2015,05,30,11,32,18.10
2015,05,30,11,33,18.20
2015,05,30,11,34,18.10
2015,05,30,11,35,17.90
2015,05,30,11,36,17.80
2015,05,30,11,37,17.80
2015,05,30,11,38,17.90
2015,05,30,11,39,18.00
2015,05,30,11,40,18.10
2015,05,30,11,41,18.20
2015,05,30,11,42,18.10
2015,05,30,11,43,18.00
2015,05,30,11,44,17.90
2015,05,30,11,45,17.90
2015,05,30,11,46,18.00
2015,05,30,11,47,18.10
2015,05,30,11,48,18.10
2015,05,30,11,49,18.20
2015,05,30,11,50,18.30
2015,05,30,11,51,18.20
2015,05,30,11,52,18.20
2015,05,30,11,53,18.20
2015,05,30,11,54,18.30
2015,05,30,11,55,18.30
2015,05,30,11,56,18.40
2015,05,30,11,57,18.40
2015,05,30,11,58,18.40
2015,05,30,11,59,18.50
2015,05,30,12,00,18.70
2015,05,30,12,01,18.90
2015,05,30,12,02,18.90
2015,05,30,12,03,18.80
2015,05,30,12,04,18.80
2015,05,30,12,05,18.80
2015,05,30,12,06,18.70
2015,05,30,12,07,18.70
2015,05,30,12,08,18.70
2015,05,30,12,09,18.60
2015,05,30,12,10,18.60
2015,05,30,12,11,18.60
2015,05,30,12,12,18.60
2015,05,30,12,13,18.60
2015,05,30,12,14,18.70
2015,05,30,12,15,18.70
2015,05,30,12,16,18.80
2015,05,30,12,17,18.90
2015,05,30,12,18,19.00
2015,05,30,12,19,19.10
2015,05,30,12,20,19.20
2015,05,30,12,21,19.20
2015,05,30,12,22,19.10
2015,05,30,12,23,18.90
2015,05,30,12,24,18.80
2015,05,30,12,25,18.70
2015,05,30,12,26,18.60
2015,05,30,12,27,18.50
2015,05,30,12,28,18.40
2015,05,30,12,29,18.40
2015,05,30,12,30,18.40
2015,05,30,12,31,18.50
2015,05,30,12,32,18.50
2015,05,30,12,33,18.60
2015,05,30,12,34,18.60
2015,05,30,12,35,18.50
2015,05,30,12,36,18.40
2015,05,30,12,37,18.30
2015,05,30,12,38,18.30
2015,05,30,12,39,18.30
2015,05,30,12,40,18.30
2015,05,30,12,41,18.30
2015,05,30,12,42,18.20
2015,05,30,12,43,18.20
2015,05,30,12,44,18.20
2015,05,30,12,45,18.20
2015,05,30,12,46,18.20
2015,05,30,12,47,18.30
2015,05,30,12,48,18.30
2015,05,30,12,49,18.40
2015,05,30,12,50,18.50
2015,05,30,12,51,18.70
2015,05,30,12,52,18.90
2015,05,30,12,53,18.90
2015,05,30,12,54,19.00
2015,05,30,12,55,19.00
2015,05,30,12,56,19.10
2015,05,30,12,57,19.10
2015,05,30,12,58,19.20
2015,05,30,12,59,19.20
2015,05,30,13,00,19.20
2015,05,30,13,01,19.20
2015,05,30,13,02,19.20
2015,05,30,13,03,19.20
2015,05,30,13,04,19.20
2015,05,30,13,05,19.20
2015,05,30,13,06,19.20
2015,05,30,13,07,19.30
2015,05,30,13,08,19.40
2015,05,30,13,09,19.60
2015,05,30,13,10,19.70
2015,05,30,13,11,19.80
2015,05,30,13,12,19.80
2015,05,30,13,13,19.80
2015,05,30,13,14,19.90
2015,05,30,13,15,19.90
2015,05,30,13,16,20.00
2015,05,30,13,17,20.00
2015,05,30,13,18,20.00
2015,05,30,13,19,20.10
2015,05,30,13,20,20.10
2015,05,30,13,21,20.00
2015,05,30,13,22,20.00
2015,05,30,13,23,20.00
2015,05,30,13,24,20.10
2015,05,30,13,25,20.20
2015,05,30,13,26,20.20
2015,05,30,13,27,20.20
2015,05,30,13,28,20.20
2015,05,30,13,29,20.20
2015,05,30,13,30,20.20
2015,05,30,13,31,20.20
2015,05,30,13,32,20.20
2015,05,30,13,33,20.20
2015,05,30,13,34,20.20
2015,05,30,13,35,20.20
2015,05,30,13,36,20.30
2015,05,30,13,37,20.30
2015,05,30,13,38,20.30
2015,05,30,13,39,20.30
2015,05,30,13,40,20.30
2015,05,30,13,41,20.40
2015,05,30,13,42,20.50
2015,05,30,13,43,20.50
2015,05,30,13,44,20.60
2015,05,30,13,45,20.60
2015,05,30,13,46,20.60
2015,05,30,13,47,20.70
2015,05,30,13,48,20.80
2015,05,30,13,49,20.90
2015,05,30,13,50,21.00
2015,05,30,13,51,21.10
2015,05,30,13,52,21.10
2015,05,30,13,53,21.20
2015,05,30,13,54,21.20
2015,05,30,13,55,21.20
2015,05,30,13,56,21.30
2015,05,30,13,57,21.30
2015,05,30,13,58,21.30
2015,05,30,13,59,21.30
2015,05,30,14,00,21.30
2015,05,30,14,01,21.30
2015,05,30,14,02,21.30
2015,05,30,14,03,21.30
2015,05,30,14,04,21.30
2015,05,30,14,05,21.40
2015,05,30,14,06,21.50
2015,05,30,14,07,21.60
2015,05,30,14,08,21.70
2015,05,30,14,09,21.70
2015,05,30,14,10,21.70
2015,05,30,14,11,21.70
2015,05,30,14,12,21.70
2015,05,30,14,13,21.70
2015,05,30,14,14,21.60
2015,05,30,14,15,21.60
2015,05,30,14,16,21.50
2015,05,30,14,17,21.40
2015,05,30,14,18,21.50
2015,05,30,14,19,21.60
2015,05,30,14,20,21.70
2015,05,30,14,21,21.70
2015,05,30,14,22,21.70
2015,05,30,14,23,21.60
2015,05,30,14,24,21.60
2015,05,30,14,25,21.60
2015,05,30,14,26,21.50
2015,05,30,14,27,21.60
2015,05,30,14,28,21.60
2015,05,30,14,29,21.60
2015,05,30,14,30,21.60
2015,05,30,14,31,21.70
2015,05,30,14,32,21.80
2015,05,30,14,33,21.90
2015,05,30,14,34,22.00
2015,05,30,14,35,22.00
2015,05,30,14,36,22.00
2015,05,30,14,37,22.00
2015,05,30,14,38,22.10
2015,05,30,14,39,22.20
2015,05,30,14,40,22.20
2015,05,30,14,41,22.20
2015,05,30,14,42,22.10
2015,05,30,14,43,22.00
2015,05,30,14,44,22.00
2015,05,30,14,45,21.90
2015,05,30,14,46,21.90
2015,05,30,14,47,21.90
2015,05,30,14,48,21.90
2015,05,30,14,49,21.90
2015,05,30,14,50,21.90
2015,05,30,14,51,21.90
2015,05,30,14,52,21.90
2015,05,30,14,53,21.90
2015,05,30,14,54,21.90
2015,05,30,14,55,22.00
2015,05,30,14,56,22.10
2015,05,30,14,57,22.10
2015,05,30,14,58,22.10
2015,05,30,14,59,22.10
2015,05,30,15,00,22.10
2015,05,30,15,01,22.10
2015,05,30,15,02,22.20
2015,05,30,15,03,22.30
2015,05,30,15,04,22.30
2015,05,30,15,05,22.30
2015,05,30,15,06,22.20
2015,05,30,15,07,22.10
2015,05,30,15,08,22.10
2015,05,30,15,09,22.20
2015,05,30,15,10,22.20
2015,05,30,15,11,22.10
2015,05,30,15,12,22.10
2015,05,30,15,13,22.10
2015,05,30,15,14,22.00
2015,05,30,15,15,22.00
2015,05,30,15,16,22.00
2015,05,30,15,17,22.00
2015,05,30,15,18,22.10
2015,05,30,15,19,22.20
2015,05,30,15,20,22.20
2015,05,30,15,21,22.20
2015,05,30,15,22,22.20
2015,05,30,15,23,22.20
2015,05,30,15,24,22.20
2015,05,30,15,25,22.30
2015,05,30,15,26,22.40
2015,05,30,15,27,22.40
2015,05,30,15,28,22.40
2015,05,30,15,29,22.50
2015,05,30,15,30,22.40
2015,05,30,15,31,22.30
2015,05,30,15,32,22.20
2015,05,30,15,33,22.10
2015,05,30,15,34,22.10
2015,05,30,15,35,22.00
2015,05,30,15,36,22.00
2015,05,30,15,37,22.00
2015,05,30,15,38,21.90
2015,05,30,15,39,21.90
2015,05,30,15,40,21.90
2015,05,30,15,41,22.00
2015,05,30,15,42,22.00
2015,05,30,15,43,22.10
2015,05,30,15,44,22.20
2015,05,30,15,45,22.30
2015,05,30,15,46,22.40
2015,05,30,15,47,22.40
2015,05,30,15,48,22.50
2015,05,30,15,49,22.40
2015,05,30,15,50,22.40
2015,05,30,15,51,22.30
2015,05,30,15,52,22.30
2015,05,30,15,53,22.30
2015,05,30,15,54,22.20
2015,05,30,15,55,22.10
2015,05,30,15,56,22.10
2015,05,30,15,57,22.20
2015,05,30,15,58,22.20
2015,05,30,15,59,22.20
2015,05,30,16,00,22.20
2015,05,30,16,01,22.20
2015,05,30,16,02,22.30
2015,05,30,16,03,22.30
2015,05,30,16,04,22.30
2015,05,30,16,05,22.30
2015,05,30,16,06,22.20
2015,05,30,16,07,22.20
2015,05,30,16,08,22.10
2015,05,30,16,09,22.10
2015,05,30,16,10,22.10
2015,05,30,16,11,22.10
2015,05,30,16,12,22.10
2015,05,30,16,13,22.10
2015,05,30,16,14,22.10
2015,05,30,16,15,22.20
2015,05,30,16,16,22.20
2015,05,30,16,17,22.20
2015,05,30,16,18,22.20
2015,05,30,16,19,22.20
2015,05,30,16,20,22.30
2015,05,30,16,21,22.40
2015,05,30,16,22,22.50
2015,05,30,16,23,22.60
2015,05,30,16,24,22.70
2015,05,30,16,25,22.80
2015,05,30,16,26,22.80
2015,05,30,16,27,22.80
2015,05,30,16,28,22.80
2015,05,30,16,29,22.80
2015,05,30,16,30,22.80
2015,05,30,16,31,22.80
2015,05,30,16,32,22.70
2015,05,30,16,33,22.60
2015,05,30,16,34,22.50
2015,05,30,16,35,22.50
2015,05,30,16,36,22.50
2015,05,30,16,37,22.50
2015,05,30,16,38,22.50
2015,05,30,16,39,22.50
2015,05,30,16,40,22.50
2015,05,30,16,41,22.50
2015,05,30,16,42,22.40
2015,05,30,16,43,22.30
2015,05,30,16,44,22.30
2015,05,30,16,45,22.30
2015,05,30,16,46,22.30
2015,05,30,16,47,22.30
2015,05,30,16,48,22.30
2015,05,30,16,49,22.30
2015,05,30,16,50,22.30
2015,05,30,16,51,22.30
2015,05,30,16,52,22.30
2015,05,30,16,53,22.30
2015,05,30,16,54,22.20
2015,05,30,16,55,22.20
2015,05,30,16,56,22.20
2015,05,30,16,57,22.10
2015,05,30,16,58,22.10
2015,05,30,16,59,22.00
2015,05,30,17,00,22.00
2015,05,30,17,01,21.90
2015,05,30,17,02,21.80
2015,05,30,17,03,21.90
2015,05,30,17,04,21.90
2015,05,30,17,05,21.90
2015,05,30,17,06,22.00
2015,05,30,17,07,22.00
2015,05,30,17,08,22.00
2015,05,30,17,09,21.90
2015,05,30,17,10,21.80
2015,05,30,17,11,21.80
2015,05,30,17,12,21.90
2015,05,30,17,13,21.90
2015,05,30,17,14,21.90
2015,05,30,17,15,21.90
2015,05,30,17,16,21.90
2015,05,30,17,17,21.90
2015,05,30,17,18,21.80
2015,05,30,17,19,21.80
2015,05,30,17,20,21.90
2015,05,30,17,21,21.90
2015,05,30,17,22,21.90
2015,05,30,17,23,21.90
2015,05,30,17,24,21.80
2015,05,30,17,25,21.80
2015,05,30,17,26,21.80
2015,05,30,17,27,21.80
2015,05,30,17,28,21.70